Castlegar, British Columbia

6:30 PM PDT on March 29, 2017 (GMT -0700)
Castlegar

Weather History for CYCG - July, 2013

Change the Weather History Date:

Sunday, July 21, 2013

  Actual Average Record
Temperature  
Mean Temperature 76 °F -  
Max Temperature 95 °F 82 °F 96 °F (2003)
Min Temperature 56 °F 53 °F 50 °F (1996)
Cooling Degree Days 12    
Growing Degree Days 26 (Base 50)    
Moisture  
Dew Point 51 °F    
Average Humidity 43    
Maximum Humidity 82    
Minimum Humidity 22    
Precipitation  
Precipitation 0.00 in 0.06 in - ()
Sea Level Pressure  
Sea Level Pressure 29.79 in    
Wind  
Wind Speed 5 mph ()    
Max Wind Speed 14 mph    
Max Gust Speed -    
Visibility 15.0 miles    
Events      
Averages and records for this station are not official NWS values.
T = Trace of Precipitation, MM = Missing Value Source: Averaged Metar Reports

Daily Weather History Graph

Daily Weather History Graph

Search for Another Location

Airport or City:

Trip Planner

Search our weather history database for the weather conditions in past years. The results will help you decide how hot, cold, wet, or windy it might be!

Date:

Astronomy

Jul. 21, 2013 Rise Set
Actual Time 5:08 AM PDT 8:44 PM PDT
Civil Twilight 4:28 AM PDT 9:24 PM PDT
Nautical Twilight 3:34 AM PDT 10:17 PM PDT
Astronomical Twilight 2:18 AM PDT 11:32 PM PDT
Moon 7:41 PM PDT (7/21) 4:02 AM PDT (7/21)
Length of Visible Light 16h 55m
Length of Day
15h 36m
Waxing Gibbous, 99% of the Moon is Illuminated
Jul 21
Waxing Gibbous
Jul 22
Full
Jul 29
Last Quarter
Aug 6
New
Aug 14
First Quarter

Hourly Weather History & Observations

Time (PDT) Temp. Heat Index Dew Point Humidity Pressure Visibility Wind Dir Wind Speed Gust Speed Precip Events Conditions
5:00 AM 66 °F - 54 °F 55% 29.90 in - North 9.2 mph - -  
6:00 AM 51.8 °F - 46.4 °F 82% 29.82 in 15.0 mi Calm Calm - N/A   Clear
7:00 AM 57.2 °F - 50.0 °F 77% 29.83 in 15.0 mi Calm Calm - N/A   Clear
8:00 AM 62.6 °F - 50.0 °F 63% 29.83 in 15.0 mi ESE 2.3 mph - N/A   Clear
9:00 AM 69.8 °F - 50.0 °F 49% 29.82 in 15.0 mi Calm Calm - N/A   Clear
10:00 AM 73.4 °F - 50.0 °F 44% 29.81 in 15.0 mi South 2.3 mph - N/A   Clear
11:00 AM 70 °F - 49 °F 37% 29.96 in - NW 10.4 mph - -  
11:00 AM 78.8 °F - 50.0 °F 36% 29.79 in 15.0 mi South 5.8 mph - N/A   Clear
12:00 PM 82.4 °F - 48.2 °F 30% 29.77 in 15.0 mi SSW 4.6 mph - N/A   Clear
1:00 PM 89.6 °F 87.3 °F 53.6 °F 29% 29.74 in 15.0 mi South 8.1 mph - N/A   Partly Cloudy
2:00 PM 93.2 °F - 51.8 °F 24% 29.73 in 15.0 mi SSW 13.8 mph - N/A   Partly Cloudy
3:00 PM 93.2 °F - 50.0 °F 23% 29.72 in 15.0 mi South 10.4 mph - N/A   Partly Cloudy
4:00 PM 95.0 °F - 50.0 °F 22% 29.70 in 15.0 mi South 8.1 mph - N/A   Partly Cloudy
5:00 PM 62 °F - 51 °F 59% 29.97 in - West 4.6 mph - -  
5:00 PM 95.0 °F - 50.0 °F 22% 29.69 in 15.0 mi SSW 11.5 mph - N/A   Partly Cloudy
6:00 PM 93.2 °F - 51.8 °F 24% 29.68 in 15.0 mi SSW 10.4 mph - N/A   Partly Cloudy
7:00 PM 91.4 °F 89.1 °F 53.6 °F 28% 29.68 in 15.0 mi South 9.2 mph - N/A   Partly Cloudy
8:00 PM 84.2 °F 83.0 °F 55.4 °F 37% 29.68 in 15.0 mi SE 6.9 mph - N/A   Partly Cloudy
9:00 PM 78.8 °F - 55.4 °F 44% 29.69 in 15.0 mi SSE 3.5 mph - N/A   Partly Cloudy
11:00 PM 56 °F - 50 °F 73% 30.03 in - NNW 4.6 mph - -